Flag for Norway Weather past 2 weeks in Fosnavåg, Norway

Now
38 °F

Chilly.


Feels Like: 28 °F
Forecast: 36 / 43 °F
Wind: 17 mph from West

Location: Svinoy Fyr

Current Time: Apr 1, 2015 at 4:48:05 PM

Latest Report: Apr 1, 2015 at 4:00 PM


Visibility: N/A

Pressure: 29.41 "Hg

Humidity: 78%

Dew point: 32 °F

Location of FosnavågLocation

Historic Weather in Fosnavåg — Graph

°F

Fosnavåg temperature yesterday

Maximum temperature yesterday: 40 °F (at 6:00 PM)
Minimum temperature yesterday: 33 °F (at 4:00 AM)
Average temperature yesterday: 37 °F

Past Weeks' High & Low Weather Summary

 TemperatureHumidityPressure
High46 °F (Mar 18, 10:00 AM)94% (Mar 20, 6:00 AM)30.55 "Hg (Mar 20, 6:00 AM)
Low33 °F (Mar 31, 4:00 AM)41% (Mar 21, 8:00 PM)28.88 "Hg (Mar 29, 1:00 AM)
Average40 °F73%29.68 "Hg
* Reported Mar 17 3:00 PM — Apr 1 3:00 PM, Fosnavåg, Weather by CustomWeather, © 2015

Note: Actual official high and low records may vary slightly from our data, if they occured in-between our weather recording intervals... More about our weather records

Advertising

Fosnavåg weather history for previous 24 hours

 ConditionsComfort  
Time TempWeatherWind HumidityBarometerVisibility
3:00 PM
Wed, Apr 1
38 °FChilly.20 mph77%29.38 "HgN/A
2:00 PM36 °FChilly.18 mph87%29.38 "HgN/A
1:00 PM37 °FChilly.18 mph85%29.35 "HgN/A
12:00 PM38 °FChilly.17 mph75%29.32 "HgN/A
11:00 AM38 °FChilly.17 mph71%29.32 "HgN/A
10:00 AM38 °FChilly.20 mph74%29.26 "HgN/A
9:00 AM34 °FChilly.N/A91%29.29 "HgN/A
8:00 AM35 °FChilly.7 mph91%29.23 "HgN/A
7:00 AM39 °FChilly.12 mph75%29.21 "HgN/A
6:00 AM38 °FChilly.7 mph72%29.18 "HgN/A
5:00 AM37 °FChilly.7 mph86%29.18 "HgN/A
4:00 AM35 °FChilly.6 mph83%29.15 "HgN/A
3:00 AM36 °FChilly.3 mph90%29.12 "HgN/A
2:00 AM34 °FChilly.8 mph92%29.09 "HgN/A
1:00 AM38 °FChilly.7 mph85%29.06 "HgN/A
11:00 PM
Tue, Mar 31
38 °FChilly.6 mph78%29.06 "HgN/A
10:00 PM39 °FChilly.10 mph75%29.03 "HgN/A
9:00 PM39 °FChilly.10 mph75%29.03 "HgN/A
8:00 PM36 °FChilly.16 mph77%29.00 "HgN/A
6:00 PM40 °FChilly.13 mph73%28.97 "HgN/A
5:00 PM39 °FChilly.8 mph75%28.97 "HgN/A
4:00 PM39 °FChilly.10 mph76%28.97 "HgN/A
Weather by CustomWeather, © 2015

See weather overviewHow to use our weather pages